When you browse on this site, cookies collect data to enhance your experience and personalize the content and advertising you see.
Visit our Privacy Policy to learn more. By continuing to use the site, you agree to this use of cookies and data.
  • In Sweden
  • List of Countries
  • For 7 days
  • Water Temperature
  • Satellite Maps
  • Weather Map
  • Weather Widgets
  • user-avatar
    Login

    Hourly Weather Chicago Heights

    Today, 19 July, Friday

    Time Temperature Precipitation Wind Pressure Humidity
    00:00 +28°C° 0.1 mm 4 mps 739 mmHg 89%
    01:00 +28°C° 0 mm 4 mps 739 mmHg 89%
    02:00 +28°C° 0 mm 4 mps 739 mmHg 89%
    03:00 +28°C° 0 mm 4 mps 739 mmHg 89%
    04:00 +28°C° 0 mm 4 mps 739 mmHg 88%
    05:00 +28°C° 0 mm 4 mps 739 mmHg 87%
    06:00 +28°C° 0 mm 4 mps 739 mmHg 87%
    07:00 +29°C° 0.1 mm 5 mps 740 mmHg 82%
    08:00 +30°C° 0.1 mm 5 mps 740 mmHg 78%
    09:00 +32°C° 0.1 mm 5 mps 740 mmHg 74%
    10:00 +32°C° 0 mm 5 mps 740 mmHg 73%
    11:00 +33°C° 0 mm 5 mps 740 mmHg 72%
    12:00 +34°C° 0 mm 5 mps 740 mmHg 71%
    13:00 +34°C° 0 mm 5 mps 740 mmHg 72%
    14:00 +34°C° 0 mm 5 mps 740 mmHg 72%
    15:00 +34°C° 0 mm 5 mps 740 mmHg 73%
    16:00 +34°C° 0 mm 5 mps 740 mmHg 76%
    17:00 +33°C° 0 mm 5 mps 740 mmHg 78%
    18:00 +33°C° 0 mm 4 mps 740 mmHg 81%
    19:00 +32°C° 0 mm 4 mps 740 mmHg 83%
    20:00 +30°C° 0 mm 4 mps 740 mmHg 86%
    21:00 +30°C° 0 mm 4 mps 740 mmHg 88%
    22:00 +29°C° 0 mm 4 mps 740 mmHg 88%
    23:00 +29°C° 0 mm 4 mps 740 mmHg 88%

    Tomorrow, 20 July, Saturday

    Time Temperature Precipitation Wind Pressure Humidity
    00:00 +29°C° 0 mm 4 mps 740 mmHg 88%
    01:00 +28°C° 0 mm 4 mps 740 mmHg 89%
    02:00 +28°C° 0 mm 3 mps 740 mmHg 90%
    03:00 +28°C° 0 mm 3 mps 740 mmHg 91%
    04:00 +28°C° 0 mm 3 mps 740 mmHg 90%
    05:00 +28°C° 0 mm 3 mps 740 mmHg 90%
    06:00 +28°C° 0 mm 4 mps 740 mmHg 89%
    07:00 +29°C° 0 mm 4 mps 740 mmHg 84%
    08:00 +32°C° 0 mm 5 mps 741 mmHg 79%
    09:00 +33°C° 0 mm 5 mps 741 mmHg 73%
    10:00 +34°C° 0.1 mm 5 mps 741 mmHg 70%
    11:00 +35°C° 0.1 mm 5 mps 741 mmHg 66%
    12:00 +36°C° 0.1 mm 5 mps 741 mmHg 63%
    13:00 +36°C° 0 mm 5 mps 740 mmHg 63%
    14:00 +36°C° 0 mm 5 mps 740 mmHg 63%
    15:00 +36°C° 0 mm 6 mps 740 mmHg 63%
    16:00 +36°C° 0 mm 5 mps 740 mmHg 67%
    17:00 +35°C° 0 mm 5 mps 739 mmHg 70%
    18:00 +34°C° 0 mm 5 mps 739 mmHg 74%
    19:00 +33°C° 0.1 mm 4 mps 739 mmHg 77%
    20:00 +32°C° 0.1 mm 4 mps 740 mmHg 80%
    21:00 +30°C° 0.1 mm 4 mps 740 mmHg 83%
    22:00 +30°C° 0 mm 3 mps 740 mmHg 84%
    23:00 +29°C° 0 mm 3 mps 740 mmHg 85%

    Day after tomorrow, 21 July, Sunday

    Time Temperature Precipitation Wind Pressure Humidity
    00:00 +29°C° 0 mm 3 mps 739 mmHg 87%
    01:00 +28°C° 0.4 mm 3 mps 739 mmHg 88%
    02:00 +28°C° 0.4 mm 2 mps 739 mmHg 89%
    03:00 +27°C° 0.4 mm 2 mps 739 mmHg 90%
    04:00 +27°C° 2 mm 2 mps 739 mmHg 88%
    05:00 +27°C° 2 mm 2 mps 739 mmHg 87%
    06:00 +27°C° 2 mm 2 mps 739 mmHg 85%
    07:00 +27°C° 0.3 mm 3 mps 740 mmHg 83%
    08:00 +27°C° 0.3 mm 3 mps 741 mmHg 81%
    09:00 +27°C° 0.3 mm 3 mps 741 mmHg 79%
    10:00 +27°C° 0 mm 3 mps 741 mmHg 77%
    11:00 +28°C° 0 mm 3 mps 741 mmHg 75%
    12:00 +28°C° 0 mm 3 mps 741 mmHg 73%
    13:00 +28°C° 0 mm 4 mps 741 mmHg 71%
    14:00 +28°C° 0 mm 5 mps 741 mmHg 69%
    15:00 +27°C° 0 mm 5 mps 741 mmHg 67%
    16:00 +27°C° 0 mm 5 mps 741 mmHg 64%
    17:00 +26°C° 0 mm 5 mps 742 mmHg 61%
    18:00 +25°C° 0 mm 5 mps 742 mmHg 57%
    19:00 +25°C° 0 mm 5 mps 742 mmHg 58%
    20:00 +23°C° 0 mm 5 mps 743 mmHg 59%
    21:00 +23°C° 0 mm 5 mps 743 mmHg 60%
    22:00 +23°C° 0 mm 5 mps 743 mmHg 60%
    23:00 +22°C° 0 mm 5 mps 743 mmHg 61%

    22 July, Monday

    Time Temperature Precipitation Wind Pressure Humidity
    00:00 +22°C° 0 mm 5 mps 744 mmHg 61%
    01:00 +22°C° 0 mm 6 mps 744 mmHg 57%
    02:00 +22°C° 0 mm 6 mps 744 mmHg 52%
    03:00 +22°C° 0 mm 6 mps 744 mmHg 47%
    04:00 +21°C° 0 mm 5 mps 745 mmHg 51%
    05:00 +20°C° 0 mm 5 mps 745 mmHg 55%
    06:00 +20°C° 0 mm 5 mps 745 mmHg 59%
    07:00 +21°C° 0 mm 5 mps 746 mmHg 57%
    08:00 +22°C° 0 mm 6 mps 746 mmHg 54%
    09:00 +23°C° 0 mm 6 mps 746 mmHg 52%
    10:00 +24°C° 0 mm 6 mps 747 mmHg 50%
    11:00 +24°C° 0 mm 6 mps 747 mmHg 47%
    12:00 +26°C° 0 mm 6 mps 747 mmHg 45%
    13:00 +26°C° 0 mm 6 mps 746 mmHg 44%
    14:00 +26°C° 0 mm 6 mps 746 mmHg 44%
    15:00 +26°C° 0 mm 5 mps 746 mmHg 44%
    16:00 +25°C° 0 mm 5 mps 746 mmHg 45%
    17:00 +23°C° 0 mm 5 mps 746 mmHg 46%
    18:00 +22°C° 0 mm 4 mps 746 mmHg 47%
    19:00 +21°C° 0 mm 4 mps 746 mmHg 47%
    20:00 +21°C° 0 mm 3 mps 747 mmHg 46%
    21:00 +20°C° 0 mm 3 mps 747 mmHg 46%
    22:00 +20°C° 0 mm 2 mps 747 mmHg 49%
    23:00 +19°C° 0 mm 2 mps 747 mmHg 51%

    23 July, Tuesday

    Time Temperature Precipitation Wind Pressure Humidity
    00:00 +19°C° 0 mm 2 mps 747 mmHg 54%
    01:00 +19°C° 0 mm 2 mps 747 mmHg 55%
    02:00 +19°C° 0 mm 2 mps 747 mmHg 55%
    03:00 +18°C° 0 mm 2 mps 747 mmHg 56%
    04:00 +18°C° 0 mm 2 mps 747 mmHg 60%
    05:00 +19°C° 0 mm 2 mps 747 mmHg 63%
    06:00 +19°C° 0 mm 2 mps 747 mmHg 66%
    07:00 +21°C° 0 mm 2 mps 747 mmHg 63%
    08:00 +23°C° 0 mm 2 mps 747 mmHg 60%
    09:00 +25°C° 0 mm 3 mps 747 mmHg 57%
    10:00 +26°C° 0 mm 3 mps 747 mmHg 55%
    11:00 +27°C° 0 mm 3 mps 747 mmHg 52%
    12:00 +28°C° 0 mm 4 mps 747 mmHg 50%
    13:00 +28°C° 0.2 mm 4 mps 747 mmHg 51%
    14:00 +28°C° 0.2 mm 4 mps 746 mmHg 52%
    15:00 +28°C° 0.2 mm 4 mps 746 mmHg 53%
    16:00 +27°C° 0.2 mm 4 mps 746 mmHg 57%
    17:00 +26°C° 0.2 mm 4 mps 746 mmHg 61%
    18:00 +26°C° 0.2 mm 4 mps 746 mmHg 65%
    19:00 +25°C° 0.3 mm 3 mps 746 mmHg 67%
    20:00 +24°C° 0.3 mm 3 mps 746 mmHg 70%
    21:00 +23°C° 0.3 mm 2 mps 746 mmHg 73%
    22:00 +21°C° 0 mm 2 mps 746 mmHg 74%
    23:00 +21°C° 0 mm 2 mps 746 mmHg 76%

    24 July, Wednesday

    Time Temperature Precipitation Wind Pressure Humidity
    00:00 +21°C° 0 mm 2 mps 746 mmHg 77%
    01:00 +20°C° 0 mm 2 mps 746 mmHg 79%
    02:00 +20°C° 0 mm 2 mps 746 mmHg 80%
    03:00 +20°C° 0 mm 2 mps 746 mmHg 81%
    04:00 +20°C° 0 mm 2 mps 746 mmHg 81%
    05:00 +20°C° 0 mm 2 mps 746 mmHg 81%
    06:00 +20°C° 0 mm 2 mps 747 mmHg 82%
    07:00 +23°C° 0 mm 2 mps 747 mmHg 75%
    08:00 +24°C° 0 mm 2 mps 747 mmHg 69%
    09:00 +26°C° 0 mm 2 mps 747 mmHg 63%
    10:00 +27°C° 0 mm 2 mps 747 mmHg 60%
    11:00 +28°C° 0 mm 3 mps 747 mmHg 57%
    12:00 +28°C° 0 mm 3 mps 747 mmHg 54%
    13:00 +28°C° 0.1 mm 3 mps 746 mmHg 56%
    14:00 +28°C° 0.1 mm 3 mps 746 mmHg 57%
    15:00 +28°C° 0.1 mm 3 mps 746 mmHg 58%
    16:00 +28°C° 0.1 mm 3 mps 746 mmHg 61%
    17:00 +27°C° 0.1 mm 3 mps 746 mmHg 65%
    18:00 +26°C° 0.1 mm 3 mps 746 mmHg 68%
    19:00 +25°C° 0 mm 2 mps 746 mmHg 70%
    20:00 +24°C° 0 mm 2 mps 746 mmHg 72%
    21:00 +23°C° 0 mm 1 mps 746 mmHg 74%
    22:00 +23°C° 0 mm 1 mps 746 mmHg 76%
    23:00 +22°C° 0 mm 1 mps 746 mmHg 78%
    Show more